Time,TemperatureF,DewpointF,PressureIn,WindDirection,WindDirectionDegrees,WindSpeedMPH,WindSpeedGustMPH,Humidity,HourlyPrecipIn,Conditions,Clouds,dailyrainin,SoftwareType,DateUTC
2013-09-06 00:11:00,76.4,64.0,30.05,SSW,211,0.0,1.0,65,0.00,,,0.00,weatherlink.com 1.10,2013-09-06 05:11:00,
2013-09-06 00:26:00,76.1,63.0,30.05,WSW,245,0.0,1.0,65,0.00,,,0.00,weatherlink.com 1.10,2013-09-06 05:26:00,
2013-09-06 00:41:00,75.6,63.0,30.05,ESE,109,0.0,1.0,66,0.00,,,0.00,weatherlink.com 1.10,2013-09-06 05:41:00,
2013-09-06 00:56:00,75.3,64.0,30.05,ESE,115,0.0,0.0,67,0.00,,,0.00,weatherlink.com 1.10,2013-09-06 05:56:00,
2013-09-06 01:11:00,75.0,64.0,30.05,SSE,149,0.0,1.0,68,0.00,,,0.00,weatherlink.com 1.10,2013-09-06 06:11:00,
2013-09-06 01:26:00,75.1,63.0,30.05,ESE,120,0.0,1.0,67,0.00,,,0.00,weatherlink.com 1.10,2013-09-06 06:26:00,
2013-09-06 01:41:00,75.0,63.0,30.05,WSW,253,0.0,1.0,67,0.00,,,0.00,weatherlink.com 1.10,2013-09-06 06:41:00,
2013-09-06 01:56:00,74.7,63.0,30.05,SSE,150,0.0,1.0,68,0.00,,,0.00,weatherlink.com 1.10,2013-09-06 06:56:00,
2013-09-06 02:11:00,74.2,63.0,30.04,SE,128,0.0,2.0,69,0.00,,,0.00,weatherlink.com 1.10,2013-09-06 07:11:00,
2013-09-06 02:26:00,73.6,63.0,30.04,SE,140,0.0,0.0,70,0.00,,,0.00,weatherlink.com 1.10,2013-09-06 07:26:00,
2013-09-06 02:41:00,73.3,63.0,30.04,ENE,61,0.0,2.0,71,0.00,,,0.00,weatherlink.com 1.10,2013-09-06 07:41:00,
2013-09-06 02:56:00,73.1,63.0,30.04,ESE,120,0.0,2.0,71,0.00,,,0.00,weatherlink.com 1.10,2013-09-06 07:56:00,
2013-09-06 03:11:00,72.9,63.0,30.03,ESE,115,0.0,1.0,72,0.00,,,0.00,weatherlink.com 1.10,2013-09-06 08:11:00,
2013-09-06 03:26:00,72.8,63.0,30.03,SSE,158,0.0,1.0,72,0.00,,,0.00,weatherlink.com 1.10,2013-09-06 08:26:00,
2013-09-06 03:41:00,72.6,63.0,30.04,SE,145,0.0,1.0,72,0.00,,,0.00,weatherlink.com 1.10,2013-09-06 08:41:00,
2013-09-06 03:56:00,72.2,63.0,30.04,ESE,104,0.0,1.0,73,0.00,,,0.00,weatherlink.com 1.10,2013-09-06 08:56:00,
2013-09-06 04:11:00,71.5,63.0,30.03,SE,143,0.0,0.0,74,0.00,,,0.00,weatherlink.com 1.10,2013-09-06 09:11:00,
2013-09-06 04:26:00,70.4,63.0,30.04,SE,143,0.0,0.0,77,0.00,,,0.00,weatherlink.com 1.10,2013-09-06 09:26:00,
2013-09-06 04:41:00,69.3,62.0,30.04,SE,143,0.0,0.0,78,0.00,,,0.00,weatherlink.com 1.10,2013-09-06 09:41:00,
2013-09-06 04:56:00,68.3,62.0,30.04,SE,144,0.0,0.0,80,0.00,,,0.00,weatherlink.com 1.10,2013-09-06 09:56:00,
2013-09-06 05:11:00,67.6,62.0,30.04,SSE,148,0.0,0.0,82,0.00,,,0.00,weatherlink.com 1.10,2013-09-06 10:11:00,
2013-09-06 05:26:00,-999.0,-99.9,30.04,North,-999,-999.0,-999.0,-999,0.00,,,0.00,weatherlink.com 1.10,2013-09-06 10:26:00,
2013-09-06 05:41:00,-999.0,-99.9,30.04,North,-999,-999.0,-999.0,-999,0.00,,,0.00,weatherlink.com 1.10,2013-09-06 10:41:00,
2013-09-06 05:56:00,-999.0,-99.9,30.04,North,-999,-999.0,-999.0,-999,0.00,,,0.00,weatherlink.com 1.10,2013-09-06 10:56:00,
2013-09-06 06:11:00,-999.0,-99.9,30.04,North,-999,-999.0,-999.0,-999,0.00,,,0.00,weatherlink.com 1.10,2013-09-06 11:11:00,
2013-09-06 06:27:00,-999.0,-99.9,30.04,North,-999,-999.0,-999.0,-999,0.00,,,0.00,weatherlink.com 1.10,2013-09-06 11:27:00,
2013-09-06 06:42:00,-999.0,-99.9,30.05,North,-999,-999.0,-999.0,-999,0.00,,,0.00,weatherlink.com 1.10,2013-09-06 11:42:00,
2013-09-06 06:57:00,-999.0,-99.9,30.05,North,-999,-999.0,-999.0,-999,0.00,,,0.00,weatherlink.com 1.10,2013-09-06 11:57:00,
2013-09-06 07:12:00,-999.0,-99.9,30.05,North,-999,-999.0,-999.0,-999,0.00,,,0.00,weatherlink.com 1.10,2013-09-06 12:12:00,
2013-09-06 07:27:00,-999.0,-99.9,30.05,North,-999,-999.0,-999.0,-999,0.00,,,0.00,weatherlink.com 1.10,2013-09-06 12:27:00,
2013-09-06 07:42:00,-999.0,-99.9,30.05,North,-999,-999.0,-999.0,-999,0.00,,,0.00,weatherlink.com 1.10,2013-09-06 12:42:00,
2013-09-06 07:57:00,69.5,62.0,30.06,ENE,78,0.0,1.0,78,0.00,,,0.00,weatherlink.com 1.10,2013-09-06 12:57:00,
2013-09-06 08:12:00,70.9,63.0,30.06,East,91,0.0,1.0,76,0.00,,,0.00,weatherlink.com 1.10,2013-09-06 13:12:00,
2013-09-06 08:27:00,73.4,64.0,30.06,ESE,111,0.0,2.0,72,0.00,,,0.00,weatherlink.com 1.10,2013-09-06 13:27:00,
2013-09-06 08:42:00,75.4,64.0,30.07,East,101,2.0,4.0,67,0.00,,,0.00,weatherlink.com 1.10,2013-09-06 13:42:00,
2013-09-06 08:57:00,77.1,64.0,30.07,ESE,108,1.0,5.0,64,0.00,,,0.00,weatherlink.com 1.10,2013-09-06 13:57:00,
2013-09-06 09:12:00,78.4,64.0,30.07,ENE,69,2.0,4.0,61,0.00,,,0.00,weatherlink.com 1.10,2013-09-06 14:12:00,
2013-09-06 09:27:00,79.5,64.0,30.07,SSE,150,2.0,6.0,59,0.00,,,0.00,weatherlink.com 1.10,2013-09-06 14:27:00,
2013-09-06 09:42:00,81.1,65.0,30.07,SSE,152,2.0,6.0,58,0.00,,,0.00,weatherlink.com 1.10,2013-09-06 14:42:00,
2013-09-06 09:57:00,83.1,65.0,30.07,SSE,159,2.0,6.0,54,0.00,,,0.00,weatherlink.com 1.10,2013-09-06 14:57:00,
2013-09-06 10:12:00,83.6,65.0,30.07,ENE,74,3.0,7.0,53,0.00,,,0.00,weatherlink.com 1.10,2013-09-06 15:12:00,
2013-09-06 10:27:00,84.9,65.0,30.07,SE,139,6.0,7.0,52,0.00,,,0.00,weatherlink.com 1.10,2013-09-06 15:27:00,
2013-09-06 10:42:00,86.6,66.0,30.07,SSE,162,3.0,5.0,50,0.00,,,0.00,weatherlink.com 1.10,2013-09-06 15:42:00,
2013-09-06 10:57:00,88.2,66.0,30.07,SSW,205,2.0,6.0,48,0.00,,,0.00,weatherlink.com 1.10,2013-09-06 15:57:00,
2013-09-06 11:12:00,88.9,67.0,30.07,SE,139,1.0,6.0,48,0.00,,,0.00,weatherlink.com 1.10,2013-09-06 16:12:00,
2013-09-06 11:27:00,90.8,67.0,30.07,SSE,152,2.0,4.0,46,0.00,,,0.00,weatherlink.com 1.10,2013-09-06 16:27:00,
2013-09-06 11:42:00,91.8,68.0,30.06,NNE,23,2.0,5.0,45,0.00,,,0.00,weatherlink.com 1.10,2013-09-06 16:42:00,
2013-09-06 11:57:00,93.0,68.0,30.05,ENE,57,3.0,6.0,44,0.00,,,0.00,weatherlink.com 1.10,2013-09-06 16:57:00,
2013-09-06 12:12:00,93.5,68.0,30.05,SSW,212,2.0,5.0,43,0.00,,,0.00,weatherlink.com 1.10,2013-09-06 17:12:00,
2013-09-06 12:27:00,95.8,68.0,30.04,East,81,0.0,4.0,40,0.00,,,0.00,weatherlink.com 1.10,2013-09-06 17:27:00,
2013-09-06 12:43:00,96.3,68.0,30.03,NW,316,1.0,6.0,39,0.00,,,0.00,weatherlink.com 1.10,2013-09-06 17:43:00,
2013-09-06 12:57:00,97.1,68.0,30.02,WNW,290,2.0,7.0,39,0.00,,,0.00,weatherlink.com 1.10,2013-09-06 17:57:00,
2013-09-06 13:12:00,97.1,68.0,30.02,NNE,33,3.0,7.0,38,0.00,,,0.00,weatherlink.com 1.10,2013-09-06 18:12:00,
2013-09-06 13:27:00,98.2,67.0,30.01,NNE,29,4.0,5.0,36,0.00,,,0.00,weatherlink.com 1.10,2013-09-06 18:27:00,
2013-09-06 13:42:00,98.9,67.0,30.00,South,177,4.0,6.0,35,0.00,,,0.00,weatherlink.com 1.10,2013-09-06 18:42:00,
2013-09-06 13:57:00,95.9,63.0,30.01,NE,41,4.0,8.0,34,0.00,,,0.00,weatherlink.com 1.10,2013-09-06 18:57:00,
2013-09-06 14:12:00,96.0,66.0,30.00,SE,139,2.0,7.0,37,0.00,,,0.00,weatherlink.com 1.10,2013-09-06 19:12:00,
2013-09-06 14:27:00,97.7,66.0,29.99,East,100,1.0,7.0,35,0.00,,,0.00,weatherlink.com 1.10,2013-09-06 19:27:00,
2013-09-06 14:42:00,98.3,65.0,29.98,East,86,0.0,5.0,34,0.00,,,0.00,weatherlink.com 1.10,2013-09-06 19:42:00,
2013-09-06 14:57:00,99.2,65.0,29.98,WNW,285,0.0,9.0,32,0.00,,,0.00,weatherlink.com 1.10,2013-09-06 19:57:00,
2013-09-06 15:12:00,99.2,64.0,29.97,NE,49,3.0,5.0,31,0.00,,,0.00,weatherlink.com 1.10,2013-09-06 20:12:00,
2013-09-06 15:27:00,99.2,64.0,29.96,East,85,3.0,8.0,31,0.00,,,0.00,weatherlink.com 1.10,2013-09-06 20:27:00,
2013-09-06 15:42:00,98.7,63.0,29.95,ESE,115,2.0,7.0,31,0.00,,,0.00,weatherlink.com 1.10,2013-09-06 20:42:00,
2013-09-06 15:57:00,98.9,63.0,29.94,ESE,109,2.0,8.0,31,0.00,,,0.00,weatherlink.com 1.10,2013-09-06 20:57:00,
2013-09-06 16:12:00,100.1,62.0,29.94,ESE,122,0.0,6.0,28,0.00,,,0.00,weatherlink.com 1.10,2013-09-06 21:12:00,
2013-09-06 16:27:00,100.0,63.0,29.93,NE,37,3.0,6.0,30,0.00,,,0.00,weatherlink.com 1.10,2013-09-06 21:27:00,
2013-09-06 16:42:00,97.7,63.0,29.93,SSE,165,3.0,5.0,32,0.00,,,0.00,weatherlink.com 1.10,2013-09-06 21:42:00,
2013-09-06 16:57:00,97.8,64.0,29.93,SE,143,4.0,7.0,33,0.00,,,0.00,weatherlink.com 1.10,2013-09-06 21:57:00,
2013-09-06 17:13:00,98.3,64.0,29.93,SE,124,2.0,6.0,32,0.00,,,0.00,weatherlink.com 1.10,2013-09-06 22:13:00,
2013-09-06 17:28:00,98.7,63.0,29.93,NNE,18,1.0,7.0,31,0.00,,,0.00,weatherlink.com 1.10,2013-09-06 22:28:00,
2013-09-06 17:43:00,98.8,63.0,29.92,SE,146,0.0,4.0,31,0.00,,,0.00,weatherlink.com 1.10,2013-09-06 22:43:00,
2013-09-06 17:58:00,98.3,63.0,29.92,East,98,2.0,6.0,31,0.00,,,0.00,weatherlink.com 1.10,2013-09-06 22:58:00,
2013-09-06 18:28:00,97.1,64.0,29.92,ENE,64,0.0,4.0,33,0.00,,,0.00,weatherlink.com 1.10,2013-09-06 23:28:00,
2013-09-06 18:43:00,96.7,63.0,29.92,ESE,119,0.0,4.0,33,0.00,,,0.00,weatherlink.com 1.10,2013-09-06 23:43:00,
2013-09-06 18:58:00,95.9,63.0,29.92,SE,144,0.0,4.0,34,0.00,,,0.00,weatherlink.com 1.10,2013-09-06 23:58:00,
2013-09-06 19:13:00,94.0,62.0,29.92,SSE,162,0.0,3.0,34,0.00,,,0.00,weatherlink.com 1.10,2013-09-07 00:13:00,
2013-09-06 19:28:00,92.7,62.0,29.92,East,81,0.0,2.0,36,0.00,,,0.00,weatherlink.com 1.10,2013-09-07 00:28:00,
2013-09-06 19:43:00,91.0,63.0,29.92,SE,136,0.0,1.0,39,0.00,,,0.00,weatherlink.com 1.10,2013-09-07 00:43:00,
2013-09-06 19:58:00,89.4,63.0,29.92,SE,143,0.0,1.0,41,0.00,,,0.00,weatherlink.com 1.10,2013-09-07 00:58:00,
2013-09-06 20:13:00,87.7,63.0,29.93,SW,221,0.0,1.0,43,0.00,,,0.00,weatherlink.com 1.10,2013-09-07 01:13:00,
2013-09-06 20:28:00,86.5,63.0,29.93,SSE,153,0.0,1.0,45,0.00,,,0.00,weatherlink.com 1.10,2013-09-07 01:28:00,
2013-09-06 20:43:00,84.2,63.0,29.93,SSE,153,0.0,0.0,49,0.00,,,0.00,weatherlink.com 1.10,2013-09-07 01:43:00,
2013-09-06 20:58:00,82.4,63.0,29.93,SSE,154,0.0,0.0,52,0.00,,,0.00,weatherlink.com 1.10,2013-09-07 01:58:00,
2013-09-06 21:13:00,81.3,63.0,29.94,SSE,167,0.0,0.0,54,0.00,,,0.00,weatherlink.com 1.10,2013-09-07 02:13:00,
2013-09-06 21:28:00,80.4,63.0,29.94,SE,143,0.0,1.0,56,0.00,,,0.00,weatherlink.com 1.10,2013-09-07 02:28:00,
2013-09-06 21:43:00,79.3,63.0,29.94,SE,142,0.0,1.0,58,0.00,,,0.00,weatherlink.com 1.10,2013-09-07 02:43:00,
2013-09-06 21:58:00,78.3,63.0,29.95,SW,229,0.0,1.0,60,0.00,,,0.00,weatherlink.com 1.10,2013-09-07 02:58:00,
2013-09-06 22:13:00,79.0,63.0,29.95,SW,228,0.0,1.0,58,0.00,,,0.00,weatherlink.com 1.10,2013-09-07 03:13:00,
2013-09-06 22:28:00,77.9,63.0,29.95,SW,228,0.0,0.0,61,0.00,,,0.00,weatherlink.com 1.10,2013-09-07 03:28:00,
2013-09-06 22:43:00,76.9,63.0,29.95,SW,229,0.0,0.0,62,0.00,,,0.00,weatherlink.com 1.10,2013-09-07 03:43:00,
2013-09-06 22:58:00,75.9,63.0,29.95,SW,229,0.0,0.0,64,0.00,,,0.00,weatherlink.com 1.10,2013-09-07 03:58:00,
2013-09-06 23:13:00,75.1,63.0,29.95,SW,229,0.0,0.0,66,0.00,,,0.00,weatherlink.com 1.10,2013-09-07 04:13:00,
2013-09-06 23:28:00,74.5,63.0,29.95,SW,228,0.0,0.0,67,0.00,,,0.00,weatherlink.com 1.10,2013-09-07 04:28:00,
2013-09-06 23:43:00,73.9,63.0,29.95,SW,228,0.0,0.0,68,0.00,,,0.00,weatherlink.com 1.10,2013-09-07 04:43:00,
2013-09-06 23:58:00,73.1,63.0,29.95,SW,229,0.0,0.0,70,0.00,,,0.00,weatherlink.com 1.10,2013-09-07 04:58:00,